Location: Antoign�
(47.0844°N, 0.1131°W)
Time: 02:34:57
(UTC+00:00)

ATLAS CENTAUR R/B - Pass Details

Date: 03 March 2021
Orbit: 475 x 670 km, 64.7° (Epoch: 30 March)

Event Time Altitude Azimuth Distance (km) Brightness Sun altitude
Rises 18:18:15 0° 181° (S) 2,522 4.8 -5.8°
Reaches altitude 10° 18:20:45 10° 163° (SSE) 1,640 3.6 -6.2°
Maximum altitude 18:23:28 20° 115° (ESE) 1,154 2.5 -6.7°
Drops below altitude 10° 18:26:11 10° 67° (ENE) 1,653 3.2 -7.1°
Enters shadow 18:27:02 - 59° (ENE) 1,932 3.6 -7.3°
